User: anonymous   Login
Location: Newark
(49.1000°N, 0.4667°W)
Time: 08:19:29
(UTC+00:00)
Language:

UWE-3 - Orbit

View from above orbital plane
View from above orbital plane
View from above satellite
View from above satellite

Ground track
Ground track

The orbit data is extracted from the following two-line orbital elements,

1 39446U 13066AG  21167.68048518  .00000241  00000-0  38376-4 0  9997
2 39446  97.6366 143.9960 0069004 200.6581 159.1839 14.78788936406397
Epoch (UTC): 16 June 2021 16:19:53
Eccentricity: 0.0069004
inclination: 97.6366°
perigee height: 585 km
apogee height: 681 km
right ascension of ascending node: 143.9960°
argument of perigee: 200.6581°
revolutions per day: 14.78788936
mean anomaly at epoch: 159.1839°
orbit number at epoch: 40639

The dashed part of the orbit path shows where the satellite is in the earth's shadow,  

DLR